Weather History for Thedford, NE

Change the Weather History Date:

Saturday, October 26, 2013

  Actual Average (KLBF) Record (KLBF)
Temperature  
Mean Temperature 48 °F 45 °F  
Max Temperature 61 °F 60 °F 86 °F (1922)
Min Temperature 34 °F 30 °F 14 °F (1887)
Degree Days  
Heating Degree Days 18 20  
Month to date heating degree days 392  
Since 1 July heating degree days 563  
Cooling Degree Days 0 0  
Month to date cooling degree days 0  
Year to date cooling degree days 765  
Moisture  
Dew Point 28 °F    
Average Humidity 54    
Maximum Humidity 89    
Minimum Humidity 20    
Precipitation  
Precipitation 0.00 in 0.04 in 2.26 in (1897)
Month to date precipitation 1.36  
Year to date precipitation 18.99  
Snow  
Snow 0.00 in 0.10 in 6.00 in (1970)
Month to date snowfall 1.6  
Since 1 July snowfall 1.8  
Since 1 September snowfall 1.8  
Snow Depth -    
Sea Level Pressure  
Sea Level Pressure 30.20 in    
Wind  
Wind Speed 6 mph (NW)    
Max Wind Speed 16 mph    
Max Gust Speed 22 mph    
Visibility 10 miles    
Events      
T = Trace of Precipitation, MM = Missing Value Source: NWS Daily Summary

Daily Weather History Graph

Daily Weather History Graph

Search for Another Location

Airport:

Trip Planner

Search our weather history database for the weather conditions in past years. The results will help you decide how hot, cold, wet, or windy it might be!

Date:

Astronomy

Oct. 26, 2013 Rise Set
Actual Time 8:07 AM CDT 6:43 PM CDT
Civil Twilight 7:39 AM CDT 7:12 PM CDT
Nautical Twilight 7:06 AM CDT 7:45 PM CDT
Astronomical Twilight 6:34 AM CDT 8:17 PM CDT
Moon 12:05 AM CDT (10/26) 2:25 PM CDT (10/26)
Length of Visible Light 11h 33m
Length of Day
10h 35m
Waning Gibbous, 53% of the Moon is Illuminated
Oct 26
Waning Gibbous
Oct 26
Last Quarter
Nov 3
New
Nov 9
First Quarter
Nov 17
Full

Hourly Weather History & Observations

Time (CDT) Temp. Windchill Dew Point Humidity Pressure Visibility Wind Dir Wind Speed Gust Speed Precip Events Conditions
12:15 AM 43.2 °F 38.4 °F 37.0 °F 79% 30.12 in 10.0 mi WNW 8.1 mph - N/A   Clear
12:35 AM 45.7 °F 42.7 °F 37.8 °F 74% 30.13 in 10.0 mi WNW 5.8 mph - N/A   Clear
12:55 AM 46.0 °F 43.9 °F 38.3 °F 74% 30.14 in 10.0 mi WNW 4.6 mph - N/A   Clear
1:15 AM 44.8 °F 42.4 °F 37.9 °F 77% 30.14 in 10.0 mi WNW 4.6 mph - N/A   Clear
1:35 AM 43.7 °F 39.7 °F 37.4 °F 78% 30.15 in 10.0 mi West 6.9 mph - N/A   Clear
1:55 AM 43.9 °F 40.5 °F 37.9 °F 80% 30.16 in 10.0 mi West 5.8 mph - N/A   Clear
2:15 AM 43.2 °F 39.7 °F 36.9 °F 78% 30.16 in 10.0 mi West 5.8 mph - N/A   Clear
2:35 AM 41.4 °F 36.8 °F 36.7 °F 83% 30.17 in 10.0 mi WNW 6.9 mph - N/A   Clear
2:55 AM 40.3 °F 35.5 °F 36.3 °F 86% 30.17 in 10.0 mi West 6.9 mph - N/A   Clear
3:15 AM 39.4 °F 37.2 °F 35.4 °F 86% 30.17 in 10.0 mi WNW 3.5 mph - N/A   Clear
3:35 AM 39.4 °F 36.1 °F 36.0 °F 88% 30.18 in 10.0 mi WNW 4.6 mph - N/A   Clear
3:55 AM 38.8 °F 33.8 °F 35.4 °F 88% 30.19 in 10.0 mi WNW 6.9 mph - N/A   Clear
4:15 AM 39.2 °F 34.2 °F 35.6 °F 87% 30.19 in 10.0 mi West 6.9 mph - N/A   Clear
4:35 AM 40.1 °F 35.3 °F 36.1 °F 86% 30.19 in 10.0 mi WNW 6.9 mph - N/A   Clear
4:55 AM 38.3 °F 34.8 °F 34.7 °F 87% 30.20 in 10.0 mi WNW 4.6 mph - N/A   Clear
5:15 AM 36.7 °F 32.0 °F 33.6 °F 89% 30.21 in 10.0 mi WNW 5.8 mph - N/A   Clear
5:35 AM 38.5 °F 36.1 °F 34.7 °F 86% 30.22 in 10.0 mi WNW 3.5 mph - N/A   Clear
5:55 AM 38.7 °F 36.3 °F 34.0 °F 83% 30.23 in 10.0 mi NNW 3.5 mph - N/A   Clear
6:15 AM 38.7 °F 35.2 °F 33.1 °F 80% 30.23 in 10.0 mi WNW 4.6 mph - N/A   Clear
6:35 AM 37.6 °F 34.0 °F 32.2 °F 81% 30.23 in 10.0 mi NW 4.6 mph - N/A   Clear
6:55 AM 36.7 °F 34.1 °F 32.2 °F 84% 30.24 in 10.0 mi WNW 3.5 mph - N/A   Clear
7:15 AM 35.8 °F - 32.0 °F 86% 30.25 in 10.0 mi Calm Calm - N/A   Clear
7:35 AM 36.3 °F - 31.5 °F 83% 30.26 in 10.0 mi Calm Calm - N/A   Clear
7:55 AM 35.1 °F 32.2 °F 30.4 °F 83% 30.26 in 10.0 mi WNW 3.5 mph - N/A   Clear
8:15 AM 34.2 °F 29.0 °F 30.0 °F 85% 30.26 in 10.0 mi WNW 5.8 mph - N/A   Clear
8:35 AM 34.3 °F 29.2 °F 30.0 °F 84% 30.26 in 10.0 mi NW 5.8 mph - N/A   Clear
8:55 AM 37.0 °F 31.0 °F 30.0 °F 76% 30.27 in 10.0 mi North 8.1 mph - N/A   Clear
9:15 AM 39.6 °F 36.3 °F 29.5 °F 67% 30.28 in 10.0 mi North 4.6 mph - N/A   Clear
9:35 AM 41.4 °F 36.8 °F 29.8 °F 64% 30.28 in 10.0 mi North 6.9 mph - N/A   Clear
9:55 AM 43.3 °F 37.2 °F 29.7 °F 59% 30.29 in 10.0 mi North 11.5 mph - N/A   Clear
10:15 AM 44.6 °F 39.7 °F 29.8 °F 56% 30.29 in 10.0 mi NNW 9.2 mph 16.1 mph N/A   Clear
10:35 AM 45.5 °F 41.3 °F 29.7 °F 54% 30.29 in 10.0 mi NNW 8.1 mph - N/A   Clear
10:55 AM 46.8 °F - 28.0 °F 48% 30.29 in 10.0 mi North 11.5 mph - N/A   Clear
11:15 AM 47.5 °F - 27.1 °F 45% 30.29 in 10.0 mi NNW 11.5 mph - N/A   Clear
11:35 AM 48.7 °F - 27.0 °F 43% 30.29 in 10.0 mi North 12.7 mph - N/A   Clear
11:55 AM 49.8 °F - 25.9 °F 39% 30.29 in 10.0 mi North 9.2 mph - N/A   Clear
12:15 PM 50.9 °F - 25.0 °F 36% 30.29 in 10.0 mi North 8.1 mph - N/A   Clear
12:35 PM 52.7 °F - 25.3 °F 35% 30.28 in 10.0 mi NNW 11.5 mph - N/A   Clear
12:55 PM 54.3 °F - 26.2 °F 34% 30.28 in 10.0 mi NW 11.5 mph - N/A   Clear
1:15 PM 55.4 °F - 25.7 °F 32% 30.28 in 10.0 mi NNW 11.5 mph 17.3 mph N/A   Clear
1:35 PM 55.9 °F - 25.3 °F 31% 30.26 in 10.0 mi NNW 16.1 mph 21.9 mph N/A   Clear
1:55 PM 57.4 °F - 25.3 °F 29% 30.26 in 10.0 mi NNW 11.5 mph 17.3 mph N/A   Clear
2:15 PM 57.9 °F - 24.4 °F 28% 30.25 in 10.0 mi NW 13.8 mph - N/A   Clear
2:35 PM 58.5 °F - 22.8 °F 25% 30.24 in 10.0 mi NNW 10.4 mph 17.3 mph N/A   Clear
2:55 PM 59.9 °F - 22.8 °F 24% 30.23 in 10.0 mi NNW 10.4 mph 17.3 mph N/A   Clear
3:15 PM 60.6 °F - 22.1 °F 23% 30.22 in 10.0 mi WNW 10.4 mph - N/A   Clear
3:35 PM 60.8 °F - 21.2 °F 22% 30.21 in 10.0 mi NNW 10.4 mph - N/A   Clear
3:55 PM 61.2 °F - 20.8 °F 21% 30.20 in 10.0 mi NNW 10.4 mph - N/A   Clear
4:15 PM 61.2 °F - 21.6 °F 22% 30.20 in 10.0 mi NW 6.9 mph - N/A   Clear
4:35 PM 61.2 °F - 20.3 °F 21% 30.20 in 10.0 mi West 8.1 mph - N/A   Clear
4:55 PM 61.0 °F - 21.7 °F 22% 30.19 in 10.0 mi NW 5.8 mph - N/A   Clear
5:15 PM 61.0 °F - 19.8 °F 20% 30.18 in 10.0 mi NW 6.9 mph - N/A   Clear
5:35 PM 60.4 °F - 20.5 °F 21% 30.17 in 10.0 mi NNW 5.8 mph - N/A   Clear
5:55 PM 59.5 °F - 21.2 °F 23% 30.17 in 10.0 mi NNW 4.6 mph - N/A   Clear
6:15 PM 58.3 °F - 21.9 °F 25% 30.17 in 10.0 mi Calm Calm - N/A   Clear
6:35 PM 56.3 °F - 21.0 °F 25% 30.16 in 10.0 mi Calm Calm - N/A   Clear
6:55 PM 52.3 °F - 21.4 °F 30% 30.15 in 10.0 mi Calm Calm - N/A   Clear
7:15 PM 48.9 °F - 21.6 °F 34% 30.15 in 10.0 mi SE 3.5 mph - N/A   Clear
7:35 PM 47.3 °F - 22.1 °F 37% 30.15 in 10.0 mi SE 4.6 mph - N/A   Clear
7:55 PM 46.4 °F 45.2 °F 22.5 °F 39% 30.14 in 10.0 mi SSE 3.5 mph - N/A   Clear
8:15 PM 43.2 °F 40.5 °F 23.9 °F 47% 30.14 in 10.0 mi SSE 4.6 mph - N/A   Clear
8:35 PM 42.8 °F - 23.4 °F 46% 30.13 in 10.0 mi Calm Calm - N/A   Clear
8:55 PM 45.0 °F - 22.6 °F 41% 30.12 in 10.0 mi Calm Calm - N/A   Clear
9:15 PM 42.3 °F - 23.5 °F 48% 30.12 in 10.0 mi Calm Calm - N/A   Clear
9:35 PM 41.4 °F - 23.9 °F 50% 30.11 in 10.0 mi Calm Calm - N/A   Clear
9:55 PM 46.2 °F 43.3 °F 22.6 °F 39% 30.11 in 10.0 mi SSW 5.8 mph - N/A   Clear
10:15 PM 41.9 °F - 23.7 °F 49% 30.11 in 10.0 mi Calm Calm - N/A   Clear
10:35 PM 43.9 °F 39.9 °F 22.5 °F 43% 30.11 in 10.0 mi SSW 6.9 mph - N/A   Clear
10:55 PM 43.7 °F 39.7 °F 22.1 °F 42% 30.11 in 10.0 mi South 6.9 mph - N/A   Clear
11:15 PM 44.1 °F 41.5 °F 22.1 °F 42% 30.10 in 10.0 mi South 4.6 mph - N/A   Clear
11:35 PM 43.7 °F 40.3 °F 22.6 °F 43% 30.09 in 10.0 mi SSW 5.8 mph - N/A   Clear
11:55 PM 42.1 °F 40.2 °F 23.0 °F 47% 30.09 in 10.0 mi South 3.5 mph - N/A   Clear